#timestamp,LO_Frequency,Hit,StdDev 
1659391215.7,286047002.3,N
1659391235.6,286047002.3,N
1659391255.4,286047001.9,N
1659391275.2,286047001.5,N
1659391295.1,286047001.5,N
1659391296.0,286047001.5,N
1659391315.8,286047002.5,N
1659391335.7,286047002.2,N
1659391355.5,286047002.4,N
1659391375.3,286047001.6,N
1659391395.2,286047002.4,N
1659391415.0,286047002.4,N
1659391415.9,286047002.4,N
1659391435.7,286047002.5,N
1659391455.6,286047002.8,N
1659391475.4,286047002.5,N
1659391495.3,286047000.4,N
1659391515.1,286047000.0,N
1659391516.0,286047000.0,N
1659391535.8,286047000.2,N
1659391555.7,286047000.1,N
1659391575.5,286047002.6,N
1659391595.4,286047000.1,N
1659391615.2,286047002.7,N
1659391635.0,286047002.7,N
1659391635.9,286047002.7,N
1659391655.8,286047000.3,N
1659391675.6,286047000.4,N
1659391695.4,286047000.7,N
1659391715.3,286046999.7,N
1659391735.1,286047002.7,N
1659391755.9,286047000.0,N
1659391775.7,286047000.5,N
1659391795.5,286047000.0,N
1659391815.4,286047000.9,N
1659391835.2,286047000.4,N
1659391855.0,286047000.9,N
1659391855.9,286047000.9,N
1659391875.8,286047000.6,N
1659391895.6,286047000.4,N
1659391915.5,286047001.0,N
1659391935.3,286047002.6,N
1659391955.1,286047002.7,N
1659391975.9,286047002.4,N
1659391995.7,286047002.2,N
1659392015.5,286047002.2,N
1659392035.4,286047002.8,N
1659392055.2,286047002.3,N
1659392075.1,286047002.2,N
1659392076.0,286047002.2,N
1659392095.8,286047002.7,N
1659392115.6,286047002.8,N
1659392135.5,286047000.5,N
1659392155.3,286046999.8,N
1659392175.1,286047000.5,N
1659392195.9,286046999.7,N
1659392215.7,286047002.6,N
1659392235.6,286047002.6,N
1659392255.4,286047000.2,N
1659392275.2,286046999.7,N
1659392295.1,286047000.1,N
1659392296.0,286047000.1,N
1659392315.8,286047000.4,N
1659392335.6,286047000.6,N
1659392355.5,286047000.1,N
1659392375.3,286047000.1,N
1659392395.2,286046999.8,N
1659392415.0,286046999.7,N
1659392415.9,286046999.7,N
1659392435.7,286047000.1,N
1659392455.6,286047000.6,N
1659392475.4,286047000.8,N
1659392495.3,286047000.5,N
1659392515.1,286046999.9,N
1659392535.8,286047002.7,N
1659392555.7,286047000.2,N
1659392575.5,286047000.6,N
1659392595.4,286047002.7,N
1659392615.2,286047002.6,N
1659392635.0,286047002.3,N
1659392635.9,286047002.3,N
1659392655.8,286047002.4,N
1659392675.6,286047002.5,N
1659392695.4,286047002.3,N
1659392715.3,286047002.8,N
1659392735.1,286047002.4,N
1659392755.9,286047002.4,N
1659392775.7,286047002.2,N
1659392795.5,286046999.7,N
1659392815.4,286046999.8,N
1659392835.2,286047002.4,N
1659392855.0,286047002.3,N
1659392856.0,286047002.3,N
1659392875.8,286047002.8,N
1659392895.6,286047002.2,N
1659392915.5,286047000.1,N
1659392935.3,286047002.1,N
1659392955.1,286047002.6,N
1659392975.9,286047002.3,N
1659392995.7,286047001.9,N
1659393015.6,286047002.5,N
1659393035.4,286047002.3,N
1659393055.2,286047001.5,N
1659393075.1,286047001.5,N
1659393076.0,286047001.5,N
1659393095.8,286047001.9,N
1659393115.6,286047002.6,Y
1659393135.5,286046998.2,P
1659393155.3,286047001.1,N
1659393175.2,286046998.1,N
1659393195.0,286047001.2,N
1659393195.9,286047001.2,N
1659393215.7,286046998.6,N
1659393235.6,286047000.5,N
1659393255.4,286047001.1,N
1659393275.3,286047001.2,N
1659393295.1,286047000.8,N
1659393296.0,286047000.8,N
1659393315.8,286046998.3,N
1659393335.7,286046999.3,N
1659393355.5,286046999.0,N
1659393375.4,286046999.1,N
1659393395.2,286046998.6,N
1659393415.0,286046999.5,N
1659393415.9,286046999.5,N
1659393435.8,286046999.2,N
1659393455.6,286046999.1,N
1659393475.4,286046999.5,N
1659393495.3,286046996.6,N
1659393515.1,286046996.9,N
1659393535.9,286046999.0,N
1659393555.7,286046997.8,N
1659393575.5,286046997.3,N
1659393595.4,286046997.0,N
1659393615.2,286046996.9,N
1659393635.0,286046996.7,N
1659393635.9,286046996.7,N
1659393655.8,286046996.9,N
1659393675.6,286046996.7,N
1659393695.5,286046996.9,N
1659393715.3,286046999.5,N
1659393735.1,286046996.5,N
1659393755.9,286046999.5,N
1659393775.7,286046999.2,N
1659393795.6,286046999.5,N
1659393815.4,286046998.3,N
1659393835.2,286046999.1,N
1659393855.1,286046999.6,N
1659393856.0,286046999.6,N
1659393875.8,286046999.6,N
1659393895.7,286046999.5,N
1659393915.5,286046997.0,N
1659393935.3,286046999.6,N
1659393955.2,286046997.0,N
1659393975.0,286046997.2,N
1659393975.9,286046997.2,N
1659393995.8,286046997.7,N
1659394015.6,286046996.1,Y
1659394035.4,286046997.0,P
1659394055.3,286046996.5,P
1659394075.1,286046998.9,N
1659394095.8,286046999.4,N
1659394115.7,286046999.4,N
1659394135.5,286046996.6,Y
1659394155.4,286046998.2,P
1659394175.2,286047000.4,P
1659394195.0,286047000.2,N
1659394195.9,286047000.2,N
1659394215.8,286047002.0,N
1659394235.6,286047002.4,N
1659394255.5,286047002.8,N
1659394275.3,286047000.2,N
1659394295.1,286046999.9,N
1659394315.9,286046998.6,N
1659394335.7,286047000.8,N
1659394355.6,286046998.1,N
1659394375.4,286047000.8,N
1659394395.2,286047000.6,N
1659394415.1,286046998.1,N
1659394416.0,286046998.1,N
1659394435.8,286047001.2,N
1659394455.6,286047000.6,N
1659394475.5,286047000.4,N
1659394495.3,286046998.7,N
1659394515.2,286046998.7,N
1659394535.0,286046999.4,N
1659394535.9,286046999.4,N
1659394555.8,286046998.9,N
1659394575.6,286046998.9,N
1659394595.4,286046998.6,N
1659394615.3,286046999.5,N
1659394635.1,286046999.6,N
1659394655.8,286046998.7,N
1659394675.7,286046998.4,N
1659394695.5,286046998.2,N
1659394715.4,286047000.0,N
1659394735.2,286047000.0,N
1659394755.0,286047000.4,N
1659394755.9,286047000.4,N
1659394775.8,286046998.2,N
1659394795.6,286047000.8,N
